SCP
1 1 1 1 1 1 1 1 1 1 1 1 1 2 1 1 0 0 0 0 0 0 0 0 0 0 0 0 0 0 0 0 0 0 0 0 0 0
1 1 1 1 1 1 1 1 1 1 1 1 1 1 1 1 0 0 0 0 0 0 0 0 0 0 0 0 0 0 0 0 0 0 0 0 0 0
1 1 1 1 1 1 1 1 1 1 1 1 1 1 1 1 1 0 0 0 0 0 0 0 0 0 0 0 0 0 0 0 0 0 0 0 0 0
0 0 0 0 1 1 1 1 1 1 1 1 1 1 1 1 1 0 0 0 0 0 0 0 0 0 0 0 0 0 0 0 0 0 0 0 0 0
0 0 0 0 0 1 1 1 1 1 1 1 1 1 1 1 1 1 0 0 0 0 0 0 0 0 0 0 0 0 0 0 0 0 0 0 0 0
0 0 0 0 0 0 0 0 1 1 1 1 1 1 1 1 1 1 0 0 0 0 0 0 0 0 0 0 0 0 0 0 0 0 0 0 0 0
0 0 0 0 0 0 0 0 0 0 1 1 1 1 1 1 1 1 0 0 0 1 1 1 0 0 0 0 0 0 0 0 0 0 0 0 0 0
0 0 0 0 0 0 0 0 0 0 0 1 1 1 1 1 1 0 0 0 0 1 1 1 1 1 0 0 0 0 0 0 0 0 0 0 0 0
0 0 0 0 0 0 0 0 0 0 0 0 1 1 1 1 1 0 0 0 0 0 1 1 1 1 1 0 0 0 0 0 0 0 0 0 0 0
0 0 0 0 0 0 0 0 0 0 0 0 0 0 0 0 0 0 0 0 0 0 0 1 1 1 0 0 0 0 0 0 0 0 0 0 0 0
0 0 0 0 0 0 0 0 0 0 0 0 0 0 0 0 0 0 0 0 0 0 0 0 0 0 0 0 0 0 0 0 0 0 0 0 0 0
0 0 0 0 0 0 0 0 0 0 0 0 0 0 0 0 0 0 0 0 0 0 0 0 0 0 0 0 0 0 0 0 0 0 0 0 0 0
0 0 0 0 0 0 0 0 0 0 0 0 0 0 0 0 0 0 0 0 0 0 0 0 0 0 0 0 0 0 0 0 0 0 0 0 0 0
0 0 0 0 0 0 0 0 0 0 0 0 0 0 0 0 0 0 0 0 0 0 0 0 0 0 0 0 0 0 0 0 0 0 0 0 0 0
0 0 0 0 0 0 0 0 0 0 0 0 1 0 0 0 0 0 0 0 0 0 0 0 0 0 0 0 0 0 0 0 0 0 0 0 0 0
0 0 0 0 0 0 0 0 0 0 0 0 0 0 0 0 0 0 0 0 0 0 0 0 0 0 0 0 0 0 0 0 0 0 0 0 0 0
0 0 0 0 0 0 0 0 0 0 0 0 0 0 0 0 0 0 0 0 0 0 0 0 0 0 0 0 0 0 0 0 0 0 0 0 0 0
0 0 0 0 0 0 0 0 0 0 0 0 0 0 0 0 0 0 0 0 0 0 0 0 0 0 0 0 0 0 0 0 0 0 0 0 0 0
0 0 0 0 0 0 0 0 0 0 0 0 0 0 0 0 0 0 0 0 0 0 0 0 0 0 0 0 0 0 0 0 0 0 0 0 0 0
0 0 0 0 0 0 0 0 0 0 0 0 0 0 0 0 0 0 0 0 0 0 0 0 0 0 0 0 0 0 0 0 0 0 0 0 0 0
0 0 0 0 0 0 0 0 0 0 0 0 0 0 0 0 0 0 0 0 0 0 0 0 0 0 0 0 0 0 0 0 0 0 0 0 0 0
0 0 0 0 0 0 0 0 0 0 0 0 0 0 0 0 0 0 0 0 0 0 0 0 0 0 0 0 0 0 0 0 0 0 0 0 0 0
0 0 0 0 0 0 0 0 0 0 0 0 0 0 0 0 0 0 0 0 0 0 0 0 0 0 0 0 0 0 0 0 0 0 0 0 0 0
Wind_Speed
6 6 6 5 5 5 4 3 3 3 3 2 1 3 5 5 5 5 6 8 11 12 13 15 15 16 15 15 15 14 13 12 12 11 11 12 13 14
4 5 5 4 4 4 3 3 3 3 3 1 1 3 5 6 6 6 7 10 10 11 11 12 13 13 12 12 11 11 11 10 10 10 11 11 12 12
4 4 4 5 4 4 4 3 3 3 4 3 1 2 4 6 5 6 8 6 6 10 11 12 12 12 12 12 12 12 11 11 11 11 12 12 12 12
3 4 5 5 6 4 4 4 4 4 4 5 3 3 5 6 7 6 7 8 7 12 14 13 14 14 14 14 14 13 12 12 12 12 12 12 13 13
4 5 6 6 6 6 5 4 4 5 4 4 4 3 4 5 6 5 6 4 7 11 16 15 15 15 14 14 14 14 13 13 13 13 13 13 12 12
5 5 6 6 6 7 6 6 5 5 4 4 3 3 4 5 5 4 3 2 2 2 6 10 13 15 15 14 14 14 14 14 14 13 13 13 12 12
5 4 5 5 4 4 5 6 7 5 5 3 3 3 3 5 5 4 3 1 0 0 1 3 5 6 9 13 15 15 14 14 14 14 13 13 13 13
5 4 4 6 6 5 3 3 6 6 6 4 2 1 1 2 3 3 3 2 1 1 1 1 1 3 4 4 8 11 13 13 13 13 13 13 13 13
5 6 7 8 8 7 5 1 3 8 8 6 7 6 4 3 2 3 3 3 2 1 1 1 1 1 1 3 3 2 3 6 8 10 11 11 12 12
6 6 6 7 10 9 5 5 5 6 7 6 5 5 5 5 3 2 2 2 2 1 2 1 1 1 1 1 1 1 2 3 4 5 6 8 9 10
6 7 7 7 12 14 8 7 6 3 4 6 5 4 4 4 3 2 2 1 1 2 2 1 0 1 1 2 2 4 4 4 4 4 5 5 6 6
4 5 10 9 11 13 7 7 7 7 8 3 1 2 2 2 3 3 2 1 0 1 2 1 1 1 2 3 4 4 4 5 6 5 4 4 4 3
3 4 5 10 11 11 8 4 5 7 7 5 1 2 2 2 2 3 3 2 2 1 1 1 1 1 2 1 2 3 4 4 3 3 4 4 3 1
5 5 4 9 10 10 7 9 12 9 5 6 5 3 3 2 2 2 2 1 1 2 2 1 1 1 1 2 2 2 3 3 3 3 4 4 2 2
3 3 5 7 8 6 6 10 9 5 4 4 4 3 1 0 1 1 2 1 1 0 2 1 1 1 1 2 3 3 3 2 2 2 2 3 3 3
5 5 6 4 3 4 6 5 4 4 4 3 4 4 4 3 2 0 1 2 2 2 1 1 2 3 2 1 2 2 2 2 1 1 1 2 4 5
7 6 4 3 2 2 2 3 4 5 5 5 4 3 4 4 4 2 1 2 1 2 2 1 0 1 3 3 3 2 2 3 2 2 1 2 4 4
5 5 5 3 3 2 2 3 3 3 4 5 5 6 5 4 4 3 2 2 2 1 1 2 2 0 0 2 3 3 2 2 1 1 1 2 4 3
4 6 5 3 2 1 2 2 2 2 2 3 5 6 6 6 5 4 3 3 3 2 1 2 2 2 1 1 0 1 1 1 2 2 1 1 3 5
5 5 2 1 1 1 2 2 2 2 2 2 3 4 5 6 6 5 4 4 3 3 3 2 2 3 3 3 3 2 1 1 1 1 2 3 3 5
3 3 4 4 4 3 3 3 4 3 3 3 2 3 4 4 5 5 5 6 4 3 4 4 4 4 2 2 2 3 3 2 3 2 1 1 2 0
3 4 4 4 4 4 4 4 5 5 5 5 4 4 3 4 5 6 5 5 4 4 4 4 3 2 2 3 3 4 4 3 2 2 2 3 2 1
4 4 4 4 4 4 4 6 7 6 6 7 7 6 6 5 5 5 5 6 5 5 5 4 3 3 2 2 2 2 3 6 4 3 3 7 9 8
Wind_Direction
274 279 269 267 266 268 270 272 265 274 269 233 165 121 118 113 143 115 117 117 118 121 129 137 145 155 165 175 184 190 198 205 211 216 221 223 226 231
267 273 282 286 294 292 287 278 261 250 263 259 154 148 136 136 153 130 129 138 137 142 147 153 160 169 178 188 196 202 209 215 219 222 225 228 230 234
292 306 317 316 314 316 311 291 269 243 245 259 203 152 138 140 146 141 144 158 162 168 170 174 179 184 191 199 207 212 218 222 225 228 229 230 231 234
335 344 342 345 349 337 322 304 289 263 243 252 226 180 173 156 161 165 160 178 175 187 192 195 197 199 202 207 213 218 223 228 232 234 235 235 235 237
15 18 17 15 7 351 336 334 313 297 266 251 239 194 179 170 165 181 180 185 193 187 198 207 211 213 213 214 218 221 226 231 235 238 240 240 241 243
39 39 36 29 12 350 356 356 338 322 297 264 245 205 186 179 167 178 182 188 229 183 194 207 214 219 224 224 226 227 229 232 235 238 239 241 243 245
42 53 62 40 22 4 9 358 352 345 332 299 257 216 184 170 182 173 171 165 308 44 171 211 202 211 221 231 233 233 232 232 235 238 240 241 241 242
31 28 83 43 8 356 341 9 15 7 350 342 326 303 166 156 152 148 149 157 210 38 52 304 198 212 216 206 215 220 224 230 235 238 239 238 236 236
37 32 36 32 13 350 339 295 13 22 22 23 37 30 40 38 115 133 140 151 167 126 74 304 325 292 72 83 111 176 223 234 240 239 236 233 231 230
43 37 48 30 10 354 9 45 61 38 29 41 46 42 41 29 43 97 128 128 123 128 126 228 276 254 115 108 158 199 238 241 239 230 222 220 222 225
76 48 39 33 10 8 18 23 30 39 63 78 78 85 81 64 43 69 95 137 192 174 160 185 229 252 185 169 194 230 240 238 232 220 208 206 215 224
116 92 55 34 17 15 15 17 11 348 341 331 167 190 163 114 67 47 48 46 124 132 152 182 194 193 228 183 179 199 223 234 232 228 218 214 216 234
53 70 46 18 11 4 1 9 341 313 304 307 251 172 149 124 103 70 50 45 57 77 136 193 210 202 211 165 173 196 201 204 209 220 226 219 211 265
29 33 24 5 354 342 343 341 340 343 348 2 16 32 57 63 78 97 92 80 112 146 156 162 230 219 189 161 170 200 215 213 204 200 196 176 150 95
16 9 352 354 347 343 349 338 336 341 357 4 359 353 3 17 269 183 192 206 277 117 131 107 329 283 221 183 171 179 192 211 206 189 179 171 166 156
351 327 313 304 312 328 339 343 347 353 352 340 329 328 331 323 300 268 204 205 199 179 173 101 31 21 14 355 136 152 150 146 135 86 88 110 107 103
334 312 305 311 313 323 338 353 360 360 356 349 344 321 319 330 327 330 347 325 309 165 176 203 97 65 85 40 44 65 91 91 79 53 28 109 115 111
322 297 294 291 294 305 316 331 345 354 355 351 348 340 332 323 311 311 303 290 301 303 168 174 164 210 13 49 49 39 51 68 48 296 281 128 126 113
273 273 270 268 283 313 318 318 316 318 328 336 339 337 332 331 326 319 321 311 298 284 247 195 182 195 221 223 300 26 69 47 353 339 354 72 133 155
250 269 287 335 349 345 336 331 321 308 300 303 312 315 317 322 324 329 331 325 317 311 299 265 212 205 208 191 179 198 197 155 74 31 12 7 54 88
324 1 24 22 7 1 0 348 335 329 324 307 290 285 297 311 318 321 322 329 327 308 293 279 267 235 193 145 170 184 177 185 155 140 101 10 348 149
14 14 21 11 3 2 2 354 344 342 341 337 337 341 347 347 335 326 328 327 327 321 311 311 293 258 203 197 217 207 175 176 175 148 164 176 170 182
27 12 356 347 357 4 7 2 355 352 358 359 358 356 357 354 347 344 347 349 348 346 341 345 353 347 343 334 296 266 184 173 178 181 219 219 222 235